FW7924 Weather Reports


time (UTC)temp
F
wind
direction
speed
knots
gust
knots
rain 1hr
in
rain 24hr
in
rain mn
in
humidity
%
barometer
mb
20260504151022 64 182 1.7 9.6 0.00 0.00 0.00 38 1012.9
20260504150519 64 162 4.3 11.3 0.00 0.00 0.00 36 1013.1
20260504140945 62 206 5.2 12.2 0.00 0.00 0.00 39 1013.4
20260504140441 62 238 6.1 13.9 0.00 0.00 0.00 40 1013.4
20260504130406 57 187 0.0 1.7 0.00 0.00 0.00 49 1014.0
20260504110253 36 352 0.0 0.0 0.00 0.00 0.00 90 1014.5
20260504100211 33 351 0.0 0.0 0.00 0.00 0.00 93 1014.3
20260504090133 33 347 0.0 0.9 0.00 0.00 0.00 93 1014.0
20260504081604 34 350 0.0 0.0 0.00 0.00 0.00 91 1013.9
20260504081100 34 350 0.0 0.0 0.00 0.00 0.00 91 1014.0
20260504080557 34 350 0.0 0.0 0.00 0.00 0.00 91 1013.9
20260504050409 36 352 0.0 0.0 0.00 0.00 0.00 84 1013.7
20260504045906 36 352 0.0 0.0 0.00 0.00 0.00 85 1013.4
20260504045402 36 352 0.0 0.0 0.00 0.00 0.00 86 1013.5
20260504044859 36 352 0.0 0.9 0.00 0.00 0.00 86 1013.3
20260504044356 37 352 0.0 0.9 0.00 0.00 0.00 86 1013.7
20260504043854 37 352 0.0 0.0 0.00 0.00 0.00 86 1013.6
20260504043350 37 352 0.0 0.0 0.00 0.00 0.00 85 1013.6
20260504042848 37 352 0.0 0.0 0.00 0.00 0.00 85 1013.6
20260504042344 37 352 0.0 0.0 0.00 0.00 0.00 85 1013.7
20260504041840 37 352 0.0 0.0 0.00 0.00 0.00 84 1013.6
20260504041336 37 352 0.0 0.0 0.00 0.00 0.00 84 1013.5
20260504040832 37 352 0.0 0.0 0.00 0.00 0.00 84 1013.7
20260504040330 37 352 0.9 0.9 0.00 0.00 0.00 83 1013.7
20260504035826 38 352 0.0 0.0 0.00 0.00 0.00 82 1013.4
20260504035324 38 352 0.0 0.0 0.00 0.00 0.00 82 1013.4
20260504034820 38 352 0.0 0.0 0.00 0.00 0.00 82 1013.3
20260504034318 38 352 0.0 0.0 0.00 0.00 0.00 81 1013.4
20260504033815 38 352 0.0 0.0 0.00 0.00 0.00 81 1013.2
20260504033313 38 352 0.0 0.0 0.00 0.00 0.00 81 1013.4
20260504032809 38 352 0.0 0.0 0.00 0.00 0.00 80 1013.4
20260504032307 39 352 0.0 0.0 0.00 0.00 0.00 80 1013.2
20260504031803 39 352 0.0 0.0 0.00 0.00 0.00 79 1013.1
20260504031301 39 352 0.0 0.0 0.00 0.00 0.00 79 1013.4
20260504030757 39 352 0.0 0.0 0.00 0.00 0.00 78 1013.2
20260504030254 39 352 0.0 0.0 0.00 0.00 0.00 78 1013.0
20260504025750 39 352 0.0 0.0 0.00 0.00 0.00 78 1013.0
20260504025247 39 352 0.0 0.0 0.00 0.00 0.00 77 1013.3
20260504024744 40 352 0.0 0.0 0.00 0.00 0.00 77 1013.2
20260504024241 40 352 0.0 0.0 0.00 0.00 0.00 76 1013.1
20260504023738 40 352 0.9 0.9 0.00 0.00 0.00 75 1013.1
20260504023234 41 352 0.9 0.9 0.00 0.00 0.00 73 1013.0
20260504022730 41 352 0.0 0.0 0.00 0.00 0.00 71 1013.1
20260504022226 42 352 0.0 0.0 0.00 0.00 0.00 71 1013.1
20260504021723 42 353 0.0 0.0 0.00 0.00 0.00 69 1012.8
20260504021221 42 353 0.0 0.9 0.00 0.00 0.00 70 1013.0
20260504020717 42 353 0.0 0.0 0.00 0.00 0.00 70 1013.2
20260504020214 42 353 0.0 0.0 0.00 0.00 0.00 71 1013.2
20260504015710 42 353 0.9 0.9 0.00 0.00 0.00 70 1013.0
20260504015207 42 353 0.9 0.9 0.00 0.00 0.00 69 1013.0
20260504014702 43 353 0.0 0.0 0.00 0.00 0.00 68 1013.0
20260504014159 43 353 0.0 0.0 0.00 0.00 0.00 67 1013.0
20260504013657 43 353 0.0 0.0 0.00 0.00 0.00 66 1012.8
20260504013154 44 353 0.0 0.0 0.00 0.00 0.00 65 1012.7
20260504012651 44 353 0.0 0.0 0.00 0.00 0.00 64 1012.7
20260504012149 45 353 0.0 0.0 0.00 0.00 0.00 63 1012.9
20260504011645 45 353 0.0 0.0 0.00 0.00 0.00 61 1012.7
20260504011142 45 353 0.0 0.0 0.00 0.00 0.00 60 1012.4
20260504010638 46 353 0.0 0.0 0.00 0.00 0.00 60 1012.6
20260504010134 46 353 0.0 0.0 0.00 0.00 0.00 60 1012.4
20260504005631 47 353 0.9 0.9 0.00 0.00 0.00 59 1012.3
20260504005128 47 353 0.9 0.9 0.00 0.00 0.00 57 1012.1
20260504004626 48 353 0.9 1.7 0.00 0.00 0.00 54 1012.3
20260504004123 48 352 0.9 1.7 0.00 0.00 0.00 54 1012.2
20260504003619 48 353 0.0 0.9 0.00 0.00 0.00 52 1012.1
20260504003115 48 353 0.9 0.9 0.00 0.00 0.00 51 1011.9
20260504002612 48 352 0.9 0.9 0.00 0.00 0.00 52 1011.9
20260504002110 48 352 0.9 0.9 0.00 0.00 0.00 52 1011.9
20260504001608 49 352 0.9 0.9 0.00 0.00 0.00 52 1011.7
20260504001103 49 352 0.9 1.7 0.00 0.00 0.00 52 1011.6
20260504000601 50 352 0.9 1.7 0.00 0.00 0.00 50 1011.7
20260504000058 50 352 0.0 0.9 0.00 0.00 0.00 49 1011.6
20260503235556 50 352 0.9 1.7 0.00 0.00 0.00 45 1011.6
20260503235053 51 352 0.9 0.9 0.00 0.00 0.00 44 1011.3
20260503234551 51 353 0.9 0.9 0.00 0.00 0.00 40 1011.6
20260503234049 52 352 0.0 0.9 0.00 0.00 0.00 41 1011.2
20260503233545 52 352 0.9 2.6 0.00 0.00 0.00 39 1011.3
20260503233041 52 210 0.9 0.9 0.00 0.00 0.00 39 1011.3
20260503232538 53 210 0.0 0.9 0.00 0.00 0.00 38 1011.3
20260503232036 53 210 0.0 0.9 0.00 0.00 0.00 37 1011.3
20260503231533 53 210 0.9 1.7 0.00 0.00 0.00 36 1011.1
20260503231030 54 212 0.9 1.7 0.00 0.00 0.00 36 1011.1
20260503230526 55 136 0.9 1.7 0.00 0.00 0.00 35 1011.1
20260503230024 56 237 0.9 1.7 0.00 0.00 0.00 34 1011.0
20260503225521 55 108 0.9 2.6 0.00 0.00 0.00 35 1010.7
20260503225016 55 314 6.1 7.8 0.00 0.00 0.00 34 1011.1
20260503224514 56 10 0.9 1.7 0.00 0.00 0.00 35 1011.0
20260503224011 56 293 1.7 6.1 0.00 0.00 0.00 34 1011.0
20260503223509 56 249 1.7 7.8 0.00 0.00 0.00 34 1010.8
20260503223004 56 237 2.6 5.2 0.00 0.00 0.00 35 1011.1
20260503222503 56 171 0.9 2.6 0.00 0.00 0.00 36 1011.1
20260503222000 56 232 1.7 5.2 0.00 0.00 0.00 35 1011.0
20260503221458 56 313 5.2 11.3 0.00 0.00 0.00 34 1010.8
20260503220955 56 343 1.7 1.7 0.00 0.00 0.00 35 1011.2
20260503220452 56 51 4.3 7.0 0.00 0.00 0.00 35 1010.9
20260503215948 56 95 1.7 7.0 0.00 0.00 0.00 35 1011.0
20260503215445 56 352 0.9 7.0 0.00 0.00 0.00 34 1011.0
20260503214943 57 301 2.6 4.3 0.00 0.00 0.00 34 1011.0
20260503214441 56 173 0.0 0.9 0.00 0.00 0.00 35 1010.9
20260503213938 56 287 2.6 6.1 0.00 0.00 0.00 36 1011.0
20260503213436 55 202 2.6 4.3 0.00 0.00 0.00 36 1010.7
20260503212932 55 36 2.6 7.0 0.00 0.00 0.00 36 1010.7
20260503212430 56 240 4.3 8.7 0.00 0.00 0.00 36 1011.1
20260503211927 56 258 4.3 7.0 0.00 0.00 0.00 36 1011.2
20260503211424 56 159 4.3 7.0 0.00 0.00 0.00 35 1011.1
20260503210919 56 272 5.2 7.8 0.00 0.00 0.00 36 1010.9
20260503210416 55 310 0.0 6.1 0.00 0.00 0.00 37 1011.1
20260503205910 56 158 1.7 9.6 0.00 0.00 0.00 36 1011.0
20260503205408 56 13 2.6 4.3 0.00 0.00 0.00 36 1010.8
20260503204904 55 146 0.9 9.6 0.00 0.00 0.00 37 1011.1
20260503204401 55 281 2.6 4.3 0.00 0.00 0.00 38 1011.0
20260503203858 55 203 2.6 7.8 0.00 0.00 0.00 38 1010.9
20260503203356 55 224 7.0 9.6 0.00 0.00 0.00 37 1010.9
20260503202852 55 166 3.5 7.8 0.00 0.00 0.00 37 1011.1
20260503202351 55 309 3.5 9.6 0.00 0.00 0.00 38 1011.0
20260503201849 55 206 1.7 7.0 0.00 0.00 0.00 37 1011.2
20260503201345 55 264 3.5 6.1 0.00 0.00 0.00 36 1011.0
20260503200843 55 214 9.6 13.9 0.00 0.00 0.00 36 1011.0
20260503200338 54 29 2.6 7.8 0.00 0.00 0.00 37 1010.9
20260503195836 54 294 6.1 8.7 0.00 0.00 0.00 39 1011.0
20260503195332 53 52 1.7 7.0 0.00 0.00 0.00 40 1011.0
20260503194830 54 136 1.7 9.6 0.00 0.00 0.00 39 1011.2
20260503194326 55 317 4.3 6.1 0.00 0.00 0.00 38 1011.0
20260503193822 53 190 3.5 15.6 0.00 0.00 0.00 40 1011.0
20260503193318 54 348 4.3 13.9 0.00 0.00 0.00 38 1011.0
20260503192814 53 195 5.2 8.7 0.00 0.00 0.00 40 1011.1
20260503192310 52 69 5.2 9.6 0.00 0.00 0.00 40 1011.0
20260503191806 52 309 2.6 6.1 0.00 0.00 0.00 41 1011.1
20260503191303 53 229 2.6 7.8 0.00 0.00 0.00 41 1011.0
20260503190800 53 171 0.9 2.6 0.00 0.00 0.00 44 1011.1
20260503190257 52 43 2.6 8.7 0.00 0.00 0.00 42 1011.1
20260503185754 54 321 0.9 4.3 0.00 0.00 0.00 40 1011.0
20260503185250 53 323 3.5 6.1 0.00 0.00 0.00 39 1011.0
20260503184744 53 188 0.9 5.2 0.00 0.00 0.00 41 1010.7
20260503184241 54 33 0.9 5.2 0.00 0.00 0.00 40 1011.0
20260503183737 53 6 3.5 9.6 0.00 0.00 0.00 39 1011.1
20260503183235 52 257 5.2 7.0 0.00 0.00 0.00 40 1011.0
20260503182732 53 4 4.3 7.8 0.00 0.00 0.00 40 1011.2
20260503182231 54 224 2.6 6.1 0.00 0.00 0.00 41 1010.8
20260503181728 53 348 4.3 6.1 0.00 0.00 0.00 38 1011.2
20260503181225 53 184 1.7 6.1 0.00 0.00 0.00 42 1010.9
20260503180721 52 52 2.6 4.3 0.00 0.00 0.00 40 1010.8
20260503180219 53 304 0.9 5.2 0.00 0.00 0.00 40 1011.0
20260503175715 53 290 6.1 11.3 0.00 0.00 0.00 39 1010.8
20260503175214 52 59 2.6 7.0 0.00 0.00 0.00 41 1010.8
20260503174709 51 285 1.7 4.3 0.00 0.00 0.00 41 1011.1
20260503174207 52 4 5.2 11.3 0.00 0.00 0.00 39 1011.0
20260503173707 52 256 5.2 9.6 0.00 0.00 0.00 40 1011.0
20260503173204 53 231 3.5 9.6 0.00 0.00 0.00 39 1011.0
20260503172701 53 226 2.6 7.0 0.00 0.00 0.00 40 1011.1
20260503172158 51 143 1.7 7.8 0.00 0.00 0.00 43 1011.3
20260503171654 51 265 3.5 11.3 0.00 0.00 0.00 43 1011.3
20260503171152 51 114 2.6 4.3 0.00 0.00 0.00 46 1011.1
20260503170649 51 300 7.0 9.6 0.00 0.00 0.00 45 1011.3
20260503170145 50 27 1.7 8.7 0.00 0.00 0.00 47 1011.1
20260503160107 49 268 2.6 4.3 0.00 0.00 0.00 53 1011.8